Time,TemperatureF,DewpointF,PressureIn,WindDirection,WindDirectionDegrees,WindSpeedMPH,WindSpeedGustMPH,Humidity,HourlyPrecipIn,Conditions,Clouds,dailyrainin,SoftwareType,DateUTC
2013-03-22 00:04:00,27.0,9.0,29.70,NE,45,5.0,-999.0,47,-99.99,,,-99.99,,2013-03-22 04:04:00,
2013-03-22 00:12:00,27.0,9.0,29.70,NE,45,5.0,-999.0,47,-99.99,,,-99.99,,2013-03-22 04:12:00,
2013-03-22 00:23:00,27.0,9.0,29.70,NW,316,5.0,-999.0,47,-99.99,,,-99.99,,2013-03-22 04:23:00,
2013-03-22 00:32:00,27.0,11.0,29.70,NW,314,3.0,-999.0,50,-99.99,,,-99.99,,2013-03-22 04:32:00,
2013-03-22 00:43:00,27.0,11.0,29.70,NW,314,3.0,-999.0,50,-99.99,,,-99.99,,2013-03-22 04:43:00,
2013-03-22 00:52:00,26.0,10.0,29.71,NW,308,4.0,-999.0,50,-99.99,,,-99.99,,2013-03-22 04:52:00,
2013-03-22 01:02:00,26.0,10.0,29.71,NE,35,3.0,-999.0,51,-99.99,,,-99.99,,2013-03-22 05:02:00,
2013-03-22 01:12:00,26.0,10.0,29.71,NE,35,3.0,-999.0,51,-99.99,,,-99.99,,2013-03-22 05:12:00,
2013-03-22 01:22:00,26.0,11.0,29.71,ENE,73,4.0,-999.0,52,-99.99,,,-99.99,,2013-03-22 05:22:00,
2013-03-22 01:32:00,25.0,10.0,29.71,NNE,16,3.0,-999.0,53,-99.99,,,-99.99,,2013-03-22 05:32:00,
2013-03-22 01:42:00,25.0,10.0,29.71,NNE,16,3.0,-999.0,53,-99.99,,,-99.99,,2013-03-22 05:42:00,
2013-03-22 01:52:00,25.0,10.0,29.71,NW,322,3.0,-999.0,53,-99.99,,,-99.99,,2013-03-22 05:52:00,
2013-03-22 02:02:00,25.0,11.0,29.71,NNE,24,3.0,-999.0,54,-99.99,,,-99.99,,2013-03-22 06:02:00,
2013-03-22 02:13:00,25.0,11.0,29.71,NNE,24,3.0,-999.0,54,-99.99,,,-99.99,,2013-03-22 06:13:00,
2013-03-22 02:22:00,25.0,11.0,29.72,NNE,14,3.0,-999.0,55,-99.99,,,-99.99,,2013-03-22 06:22:00,
2013-03-22 02:32:00,25.0,11.0,29.71,North,359,2.0,-999.0,55,-99.99,,,-99.99,,2013-03-22 06:32:00,
2013-03-22 02:42:00,25.0,11.0,29.71,North,359,2.0,-999.0,55,-99.99,,,-99.99,,2013-03-22 06:42:00,
2013-03-22 02:52:00,24.0,11.0,29.71,North,4,3.0,-999.0,56,-99.99,,,-99.99,,2013-03-22 06:52:00,
2013-03-22 03:03:00,24.0,11.0,29.71,NW,324,2.0,-999.0,57,-99.99,,,-99.99,,2013-03-22 07:03:00,
2013-03-22 03:12:00,24.0,11.0,29.71,NW,324,2.0,-999.0,57,-99.99,,,-99.99,,2013-03-22 07:12:00,
2013-03-22 03:22:00,24.0,11.0,29.71,NW,320,2.0,-999.0,58,-99.99,,,-99.99,,2013-03-22 07:22:00,
2013-03-22 03:32:00,24.0,11.0,29.70,WNW,302,2.0,-999.0,57,-99.99,,,-99.99,,2013-03-22 07:32:00,
2013-03-22 03:42:00,24.0,11.0,29.70,WNW,302,2.0,-999.0,57,-99.99,,,-99.99,,2013-03-22 07:42:00,
2013-03-22 03:52:00,24.0,11.0,29.70,NNW,329,2.0,-999.0,58,-99.99,,,-99.99,,2013-03-22 07:52:00,
2013-03-22 04:03:00,23.0,11.0,29.69,NW,318,1.0,-999.0,59,-99.99,,,-99.99,,2013-03-22 08:03:00,
2013-03-22 04:13:00,23.0,11.0,29.69,NW,318,1.0,-999.0,59,-99.99,,,-99.99,,2013-03-22 08:13:00,
2013-03-22 04:22:00,23.0,11.0,29.69,NNW,329,2.0,-999.0,60,-99.99,,,-99.99,,2013-03-22 08:22:00,
2013-03-22 04:32:00,23.0,12.0,29.69,NW,316,1.0,-999.0,62,-99.99,,,-99.99,,2013-03-22 08:32:00,
2013-03-22 04:42:00,23.0,12.0,29.69,NW,316,1.0,-999.0,62,-99.99,,,-99.99,,2013-03-22 08:42:00,
2013-03-22 04:52:00,22.0,11.0,29.69,NNW,346,1.0,-999.0,62,-99.99,,,-99.99,,2013-03-22 08:52:00,
2013-03-22 05:03:00,22.0,11.0,29.69,NW,319,1.0,-999.0,63,-99.99,,,-99.99,,2013-03-22 09:03:00,
2013-03-22 05:12:00,22.0,11.0,29.69,NW,319,1.0,-999.0,63,-99.99,,,-99.99,,2013-03-22 09:12:00,
2013-03-22 05:22:00,22.0,12.0,29.69,NW,324,1.0,-999.0,64,-99.99,,,-99.99,,2013-03-22 09:22:00,
2013-03-22 05:33:00,22.0,12.0,29.69,WNW,285,0.0,-999.0,64,-99.99,,,-99.99,,2013-03-22 09:33:00,
2013-03-22 05:42:00,22.0,12.0,29.69,WNW,285,0.0,-999.0,64,-99.99,,,-99.99,,2013-03-22 09:42:00,
2013-03-22 05:53:00,21.0,11.0,29.70,WNW,287,0.0,-999.0,66,-99.99,,,-99.99,,2013-03-22 09:53:00,
2013-03-22 06:04:00,21.0,11.0,29.70,WNW,283,0.0,-999.0,66,-99.99,,,-99.99,,2013-03-22 10:04:00,
2013-03-22 06:12:00,21.0,11.0,29.70,WNW,283,0.0,-999.0,66,-99.99,,,-99.99,,2013-03-22 10:12:00,
2013-03-22 06:22:00,21.0,11.0,29.70,West,278,0.0,-999.0,66,-99.99,,,-99.99,,2013-03-22 10:22:00,
2013-03-22 06:33:00,21.0,12.0,29.70,NW,315,0.0,-999.0,67,-99.99,,,-99.99,,2013-03-22 10:33:00,
2013-03-22 06:42:00,21.0,12.0,29.70,NW,315,0.0,-999.0,67,-99.99,,,-99.99,,2013-03-22 10:42:00,
2013-03-22 06:52:00,21.0,12.0,29.71,NW,310,0.0,-999.0,67,-99.99,,,-99.99,,2013-03-22 10:52:00,
2013-03-22 07:03:00,21.0,11.0,29.70,NW,320,0.0,-999.0,66,-99.99,,,-99.99,,2013-03-22 11:03:00,
2013-03-22 07:12:00,21.0,11.0,29.70,NW,320,0.0,-999.0,66,-99.99,,,-99.99,,2013-03-22 11:12:00,
2013-03-22 07:22:00,21.0,11.0,29.71,NW,324,2.0,-999.0,66,-99.99,,,-99.99,,2013-03-22 11:22:00,
2013-03-22 07:33:00,22.0,12.0,29.72,WNW,293,1.0,-999.0,66,-99.99,,,-99.99,,2013-03-22 11:33:00,
2013-03-22 07:42:00,22.0,12.0,29.72,WNW,293,1.0,-999.0,66,-99.99,,,-99.99,,2013-03-22 11:42:00,
2013-03-22 07:52:00,22.0,13.0,29.72,WNW,283,2.0,-999.0,67,-99.99,,,-99.99,,2013-03-22 11:52:00,
2013-03-22 08:02:00,22.0,13.0,29.73,NNW,335,3.0,-999.0,67,-99.99,,,-99.99,,2013-03-22 12:02:00,
2013-03-22 08:12:00,23.0,14.0,29.73,NW,326,2.0,-999.0,67,-99.99,,,-99.99,,2013-03-22 12:12:00,
2013-03-22 08:22:00,23.0,14.0,29.73,NW,326,2.0,-999.0,67,-99.99,,,-99.99,,2013-03-22 12:22:00,
2013-03-22 08:32:00,24.0,14.0,29.73,North,349,3.0,-999.0,65,-99.99,,,-99.99,,2013-03-22 12:32:00,
2013-03-22 08:42:00,24.0,14.0,29.73,North,349,3.0,-999.0,65,-99.99,,,-99.99,,2013-03-22 12:42:00,
2013-03-22 08:52:00,24.0,14.0,29.74,NW,321,3.0,-999.0,66,-99.99,,,-99.99,,2013-03-22 12:52:00,
2013-03-22 09:02:00,25.0,15.0,29.74,NNW,342,1.0,-999.0,65,-99.99,,,-99.99,,2013-03-22 13:02:00,
2013-03-22 09:12:00,25.0,15.0,29.74,NNW,342,1.0,-999.0,65,-99.99,,,-99.99,,2013-03-22 13:12:00,
2013-03-22 09:22:00,26.0,16.0,29.75,NW,320,2.0,-999.0,66,-99.99,,,-99.99,,2013-03-22 13:22:00,
2013-03-22 09:32:00,27.0,17.0,29.74,WNW,301,2.0,-999.0,65,-99.99,,,-99.99,,2013-03-22 13:32:00,
2013-03-22 09:42:00,27.0,17.0,29.74,WNW,301,2.0,-999.0,65,-99.99,,,-99.99,,2013-03-22 13:42:00,
2013-03-22 09:52:00,28.0,17.0,29.75,WNW,301,2.0,-999.0,62,-99.99,,,-99.99,,2013-03-22 13:52:00,
2013-03-22 10:03:00,29.0,17.0,29.75,North,354,2.0,-999.0,61,-99.99,,,-99.99,,2013-03-22 14:03:00,
2013-03-22 10:12:00,29.0,17.0,29.75,North,354,2.0,-999.0,61,-99.99,,,-99.99,,2013-03-22 14:12:00,
2013-03-22 10:22:00,30.0,18.0,29.75,NW,326,3.0,-999.0,60,-99.99,,,-99.99,,2013-03-22 14:22:00,
2013-03-22 10:32:00,32.0,18.0,29.75,WSW,240,1.0,-999.0,56,-99.99,,,-99.99,,2013-03-22 14:32:00,
2013-03-22 10:42:00,32.0,18.0,29.75,WSW,240,1.0,-999.0,56,-99.99,,,-99.99,,2013-03-22 14:42:00,
2013-03-22 10:52:00,33.0,18.0,29.75,WNW,303,3.0,-999.0,54,-99.99,,,-99.99,,2013-03-22 14:52:00,
2013-03-22 11:03:00,33.0,17.0,29.75,NE,43,3.0,-999.0,52,-99.99,,,-99.99,,2013-03-22 15:03:00,
2013-03-22 11:12:00,33.0,17.0,29.75,NE,43,3.0,-999.0,52,-99.99,,,-99.99,,2013-03-22 15:12:00,
2013-03-22 11:22:00,34.0,18.0,29.75,WNW,285,3.0,-999.0,51,-99.99,,,-99.99,,2013-03-22 15:22:00,
2013-03-22 11:33:00,33.0,18.0,29.76,NNW,330,4.0,-999.0,53,-99.99,,,-99.99,,2013-03-22 15:33:00,
2013-03-22 11:43:00,33.0,18.0,29.76,NNW,330,4.0,-999.0,53,-99.99,,,-99.99,,2013-03-22 15:43:00,
2013-03-22 11:52:00,33.0,18.0,29.75,NNE,33,3.0,-999.0,53,-99.99,,,-99.99,,2013-03-22 15:52:00,
2013-03-22 12:03:00,33.0,17.0,29.75,West,276,5.0,-999.0,51,-99.99,,,-99.99,,2013-03-22 16:03:00,
2013-03-22 12:13:00,34.0,18.0,29.75,North,354,4.0,-999.0,51,-99.99,,,-99.99,,2013-03-22 16:13:00,
2013-03-22 12:23:00,34.0,18.0,29.75,North,354,4.0,-999.0,51,-99.99,,,-99.99,,2013-03-22 16:23:00,
2013-03-22 12:32:00,35.0,19.0,29.75,NW,316,3.0,-999.0,51,-99.99,,,-99.99,,2013-03-22 16:32:00,
2013-03-22 12:42:00,36.0,19.0,29.75,North,354,4.0,-999.0,49,-99.99,,,-99.99,,2013-03-22 16:42:00,
2013-03-22 12:52:00,36.0,19.0,29.75,North,354,4.0,-999.0,49,-99.99,,,-99.99,,2013-03-22 16:52:00,
2013-03-22 13:03:00,36.0,19.0,29.75,WNW,287,4.0,-999.0,49,-99.99,,,-99.99,,2013-03-22 17:03:00,
2013-03-22 13:12:00,37.0,19.0,29.75,West,273,2.0,-999.0,47,-99.99,,,-99.99,,2013-03-22 17:12:00,
2013-03-22 13:23:00,37.0,19.0,29.75,West,273,2.0,-999.0,47,-99.99,,,-99.99,,2013-03-22 17:23:00,
2013-03-22 13:32:00,37.0,19.0,29.75,West,262,2.0,-999.0,47,-99.99,,,-99.99,,2013-03-22 17:32:00,
2013-03-22 13:42:00,37.0,19.0,29.75,West,262,2.0,-999.0,47,-99.99,,,-99.99,,2013-03-22 17:42:00,
2013-03-22 13:52:00,36.0,19.0,29.75,West,276,5.0,-999.0,50,-99.99,,,-99.99,,2013-03-22 17:52:00,
2013-03-22 14:02:00,36.0,22.0,29.75,WSW,249,5.0,-999.0,57,-99.99,,,-99.99,,2013-03-22 18:02:00,
2013-03-22 14:12:00,36.0,22.0,29.75,WSW,249,5.0,-999.0,57,-99.99,,,-99.99,,2013-03-22 18:12:00,
2013-03-22 14:22:00,38.0,22.0,29.74,WNW,285,2.0,-999.0,52,-99.99,,,-99.99,,2013-03-22 18:22:00,
2013-03-22 14:33:00,37.0,20.0,29.73,WNW,296,4.0,-999.0,49,-99.99,,,-99.99,,2013-03-22 18:33:00,
2013-03-22 14:42:00,37.0,20.0,29.73,WNW,296,4.0,-999.0,49,-99.99,,,-99.99,,2013-03-22 18:42:00,
2013-03-22 14:52:00,36.0,19.0,29.73,NW,312,4.0,-999.0,50,-99.99,,,-99.99,,2013-03-22 18:52:00,
2013-03-22 15:02:00,37.0,20.0,29.73,West,280,3.0,-999.0,49,-99.99,,,-99.99,,2013-03-22 19:02:00,
2013-03-22 15:12:00,37.0,20.0,29.73,West,280,3.0,-999.0,49,-99.99,,,-99.99,,2013-03-22 19:12:00,
2013-03-22 15:22:00,36.0,20.0,29.74,North,354,4.0,-999.0,52,-99.99,,,-99.99,,2013-03-22 19:22:00,
2013-03-22 15:32:00,36.0,20.0,29.73,WNW,282,3.0,-999.0,52,-99.99,,,-99.99,,2013-03-22 19:32:00,
2013-03-22 15:42:00,36.0,20.0,29.73,WNW,282,3.0,-999.0,52,-99.99,,,-99.99,,2013-03-22 19:42:00,
2013-03-22 15:52:00,37.0,18.0,29.73,NW,323,5.0,-999.0,46,-99.99,,,-99.99,,2013-03-22 19:52:00,
2013-03-22 16:02:00,36.0,18.0,29.73,NW,304,5.0,-999.0,47,-99.99,,,-99.99,,2013-03-22 20:02:00,
2013-03-22 16:12:00,36.0,18.0,29.73,NW,304,5.0,-999.0,47,-99.99,,,-99.99,,2013-03-22 20:12:00,
2013-03-22 16:22:00,36.0,19.0,29.73,NNW,330,5.0,-999.0,49,-99.99,,,-99.99,,2013-03-22 20:22:00,
2013-03-22 16:32:00,36.0,18.0,29.73,NNW,330,6.0,-999.0,48,-99.99,,,-99.99,,2013-03-22 20:32:00,
2013-03-22 16:43:00,36.0,18.0,29.73,NNW,330,6.0,-999.0,48,-99.99,,,-99.99,,2013-03-22 20:43:00,
2013-03-22 16:52:00,37.0,19.0,29.74,WNW,299,6.0,-999.0,48,-99.99,,,-99.99,,2013-03-22 20:52:00,
2013-03-22 17:03:00,36.0,20.0,29.75,NNW,342,5.0,-999.0,51,-99.99,,,-99.99,,2013-03-22 21:03:00,
2013-03-22 17:12:00,36.0,21.0,29.74,NNW,347,6.0,-999.0,53,-99.99,,,-99.99,,2013-03-22 21:12:00,
2013-03-22 17:22:00,36.0,21.0,29.74,NNW,347,6.0,-999.0,53,-99.99,,,-99.99,,2013-03-22 21:22:00,
2013-03-22 17:33:00,35.0,20.0,29.74,SW,222,4.0,-999.0,54,-99.99,,,-99.99,,2013-03-22 21:33:00,
2013-03-22 17:43:00,35.0,20.0,29.74,SW,222,4.0,-999.0,54,-99.99,,,-99.99,,2013-03-22 21:43:00,
2013-03-22 17:53:00,35.0,21.0,29.75,NNW,345,3.0,-999.0,56,-99.99,,,-99.99,,2013-03-22 21:53:00,
2013-03-22 18:03:00,35.0,21.0,29.75,WSW,241,2.0,-999.0,56,-99.99,,,-99.99,,2013-03-22 22:03:00,
2013-03-22 18:12:00,35.0,21.0,29.75,WSW,241,2.0,-999.0,56,-99.99,,,-99.99,,2013-03-22 22:12:00,
2013-03-22 18:23:00,35.0,20.0,29.75,NNW,340,4.0,-999.0,55,-99.99,,,-99.99,,2013-03-22 22:23:00,
2013-03-22 18:32:00,34.0,20.0,29.76,NW,322,3.0,-999.0,56,-99.99,,,-99.99,,2013-03-22 22:32:00,
2013-03-22 18:43:00,34.0,20.0,29.76,NW,322,3.0,-999.0,56,-99.99,,,-99.99,,2013-03-22 22:43:00,
2013-03-22 18:52:00,34.0,20.0,29.76,WNW,301,2.0,-999.0,57,-99.99,,,-99.99,,2013-03-22 22:52:00,
2013-03-22 19:02:00,34.0,20.0,29.77,NW,321,5.0,-999.0,55,-99.99,,,-99.99,,2013-03-22 23:02:00,
2013-03-22 19:12:00,34.0,20.0,29.77,NW,321,5.0,-999.0,55,-99.99,,,-99.99,,2013-03-22 23:12:00,
2013-03-22 19:22:00,34.0,20.0,29.78,West,269,6.0,-999.0,56,-99.99,,,-99.99,,2013-03-22 23:22:00,
2013-03-22 19:32:00,34.0,21.0,29.78,WNW,302,5.0,-999.0,58,-99.99,,,-99.99,,2013-03-22 23:32:00,
2013-03-22 19:42:00,34.0,21.0,29.78,WNW,302,5.0,-999.0,58,-99.99,,,-99.99,,2013-03-22 23:42:00,
2013-03-22 19:52:00,33.0,20.0,29.78,NW,312,3.0,-999.0,58,-99.99,,,-99.99,,2013-03-22 23:52:00,
2013-03-22 20:02:00,33.0,21.0,29.79,WNW,297,4.0,-999.0,60,-99.99,,,-99.99,,2013-03-23 00:02:00,
2013-03-22 20:12:00,33.0,21.0,29.79,WNW,297,4.0,-999.0,60,-99.99,,,-99.99,,2013-03-23 00:12:00,
2013-03-22 20:23:00,33.0,21.0,29.80,West,276,3.0,-999.0,60,-99.99,,,-99.99,,2013-03-23 00:23:00,
2013-03-22 20:33:00,32.0,20.0,29.80,WNW,303,4.0,-999.0,61,-99.99,,,-99.99,,2013-03-23 00:33:00,
2013-03-22 20:42:00,32.0,20.0,29.80,NNE,18,5.0,-999.0,62,-99.99,,,-99.99,,2013-03-23 00:42:00,
2013-03-22 20:52:00,32.0,20.0,29.80,NNE,18,5.0,-999.0,62,-99.99,,,-99.99,,2013-03-23 00:52:00,
2013-03-22 21:03:00,32.0,20.0,29.81,North,359,5.0,-999.0,62,-99.99,,,-99.99,,2013-03-23 01:03:00,
2013-03-22 21:12:00,32.0,20.0,29.81,North,359,5.0,-999.0,62,-99.99,,,-99.99,,2013-03-23 01:12:00,
2013-03-22 21:22:00,32.0,21.0,29.82,NW,306,3.0,-999.0,63,-99.99,,,-99.99,,2013-03-23 01:22:00,
2013-03-22 21:32:00,32.0,21.0,29.82,NW,309,3.0,-999.0,63,-99.99,,,-99.99,,2013-03-23 01:32:00,
2013-03-22 21:42:00,32.0,21.0,29.82,NW,309,3.0,-999.0,63,-99.99,,,-99.99,,2013-03-23 01:42:00,
2013-03-22 21:52:00,32.0,21.0,29.82,WNW,303,2.0,-999.0,64,-99.99,,,-99.99,,2013-03-23 01:52:00,
2013-03-22 22:02:00,31.0,20.0,29.82,NW,312,2.0,-999.0,64,-99.99,,,-99.99,,2013-03-23 02:02:00,
2013-03-22 22:12:00,31.0,20.0,29.82,NW,312,2.0,-999.0,64,-99.99,,,-99.99,,2013-03-23 02:12:00,
2013-03-22 22:22:00,31.0,20.0,29.83,NNW,330,2.0,-999.0,64,-99.99,,,-99.99,,2013-03-23 02:22:00,
2013-03-22 22:32:00,31.0,20.0,29.83,North,350,3.0,-999.0,64,-99.99,,,-99.99,,2013-03-23 02:32:00,
2013-03-22 22:42:00,31.0,20.0,29.83,North,350,3.0,-999.0,64,-99.99,,,-99.99,,2013-03-23 02:42:00,
2013-03-22 22:52:00,31.0,20.0,29.83,NNW,336,3.0,-999.0,63,-99.99,,,-99.99,,2013-03-23 02:52:00,
2013-03-22 23:02:00,31.0,20.0,29.82,NW,308,1.0,-999.0,63,-99.99,,,-99.99,,2013-03-23 03:02:00,
2013-03-22 23:12:00,31.0,20.0,29.82,NW,308,1.0,-999.0,63,-99.99,,,-99.99,,2013-03-23 03:12:00,
2013-03-22 23:22:00,31.0,21.0,29.83,NW,317,1.0,-999.0,65,-99.99,,,-99.99,,2013-03-23 03:22:00,
2013-03-22 23:33:00,30.0,20.0,29.83,WNW,299,1.0,-999.0,66,-99.99,,,-99.99,,2013-03-23 03:33:00,
2013-03-22 23:43:00,30.0,20.0,29.83,WNW,299,1.0,-999.0,66,-99.99,,,-99.99,,2013-03-23 03:43:00,
2013-03-22 23:53:00,30.0,20.0,29.83,WNW,285,1.0,-999.0,66,-99.99,,,-99.99,,2013-03-23 03:53:00,